QPF
0.03 0.03 0.02 0.03 0.03 0.03 0.02 0.02 0.02 0.02 0.01 0.01 0.02 0.03 0.03 0.04 0.05 0.07 0.07 0.05 0.05 0.06 0.06 0.06 0.06 0.05 0.04 0.05 0.06 0.05 0.05 0.06 0.06 0.07 0.12 0.15 0.13 0.14 0.11 0.07 0.07 0.08 0.07
0.02 0.02 0.01 0.02 0.02 0.02 0.02 0.02 0.02 0.02 0.02 0.03 0.02 0.01 0.02 0.04 0.05 0.06 0.06 0.04 0.04 0.05 0.05 0.05 0.06 0.06 0.06 0.06 0.07 0.05 0.04 0.04 0.05 0.04 0.05 0.06 0.06 0.06 0.06 0.04 0.03 0.03 0.03
0.01 0.00 0.01 0.01 0.01 0.01 0.01 0.02 0.02 0.02 0.02 0.04 0.04 0.01 0.02 0.03 0.05 0.07 0.07 0.05 0.04 0.05 0.06 0.05 0.07 0.07 0.06 0.06 0.07 0.06 0.04 0.04 0.04 0.03 0.03 0.03 0.02 0.02 0.03 0.03 0.02 0.01 0.02
0.01 0.00 0.01 0.00 0.00 0.00 0.01 0.02 0.02 0.02 0.02 0.04 0.04 0.02 0.03 0.03 0.04 0.06 0.08 0.06 0.05 0.05 0.06 0.07 0.06 0.07 0.07 0.08 0.09 0.07 0.06 0.04 0.03 0.03 0.03 0.02 0.02 0.02 0.02 0.01 0.01 0.02 0.03
0.01 0.00 0.00 0.00 0.00 0.00 0.01 0.01 0.02 0.03 0.03 0.03 0.04 0.03 0.03 0.03 0.03 0.04 0.06 0.07 0.05 0.04 0.05 0.08 0.09 0.10 0.10 0.09 0.10 0.09 0.07 0.05 0.03 0.02 0.02 0.02 0.02 0.02 0.02 0.03 0.03 0.03 0.03
0.00 0.00 0.00 0.00 0.00 0.00 0.00 0.01 0.01 0.03 0.04 0.03 0.03 0.03 0.03 0.03 0.03 0.03 0.04 0.05 0.06 0.06 0.05 0.05 0.08 0.10 0.10 0.09 0.08 0.08 0.07 0.06 0.04 0.04 0.03 0.02 0.03 0.03 0.03 0.04 0.04 0.05 0.04
0.00 0.00 0.00 0.00 0.00 0.00 0.00 0.00 0.01 0.02 0.02 0.03 0.03 0.04 0.04 0.04 0.03 0.03 0.04 0.04 0.04 0.04 0.06 0.06 0.04 0.05 0.06 0.05 0.04 0.04 0.04 0.04 0.05 0.04 0.03 0.02 0.04 0.04 0.03 0.03 0.04 0.04 0.05
0.00 0.00 0.00 0.00 0.00 0.01 0.01 0.01 0.01 0.02 0.03 0.03 0.03 0.03 0.04 0.04 0.03 0.03 0.04 0.05 0.04 0.04 0.05 0.06 0.07 0.05 0.03 0.03 0.03 0.02 0.02 0.03 0.04 0.04 0.03 0.02 0.03 0.03 0.03 0.03 0.04 0.04 0.04
0.01 0.00 0.00 0.00 0.00 0.01 0.01 0.01 0.02 0.02 0.02 0.03 0.03 0.03 0.03 0.04 0.03 0.03 0.03 0.04 0.05 0.04 0.04 0.04 0.05 0.05 0.04 0.02 0.02 0.01 0.02 0.02 0.04 0.04 0.03 0.02 0.03 0.02 0.03 0.03 0.03 0.03 0.03
0.01 0.00 0.00 0.00 0.00 0.01 0.01 0.01 0.01 0.01 0.01 0.02 0.03 0.03 0.03 0.02 0.03 0.04 0.04 0.03 0.04 0.04 0.04 0.03 0.04 0.04 0.04 0.03 0.02 0.01 0.01 0.01 0.02 0.03 0.03 0.03 0.03 0.03 0.03 0.02 0.02 0.03 0.03
0.01 0.00 0.00 0.00 0.00 0.01 0.01 0.00 0.00 0.01 0.01 0.02 0.02 0.02 0.03 0.03 0.02 0.03 0.04 0.03 0.03 0.03 0.04 0.04 0.04 0.04 0.04 0.03 0.01 0.01 0.01 0.01 0.01 0.01 0.02 0.02 0.02 0.03 0.03 0.03 0.02 0.02 0.02
0.01 0.01 0.01 0.01 0.01 0.01 0.01 0.00 0.00 0.00 0.01 0.01 0.01 0.02 0.02 0.03 0.03 0.03 0.03 0.04 0.04 0.03 0.03 0.04 0.04 0.04 0.03 0.02 0.01 0.01 0.01 0.00 0.00 0.01 0.01 0.01 0.01 0.02 0.03 0.04 0.04 0.03 0.02
0.02 0.02 0.01 0.01 0.01 0.01 0.01 0.01 0.01 0.01 0.01 0.01 0.01 0.01 0.02 0.02 0.03 0.04 0.04 0.05 0.05 0.04 0.03 0.03 0.03 0.04 0.03 0.02 0.02 0.01 0.01 0.01 0.00 0.00 0.00 0.00 0.01 0.02 0.03 0.04 0.03 0.04 0.03
0.02 0.01 0.01 0.01 0.01 0.01 0.01 0.01 0.01 0.01 0.01 0.01 0.01 0.02 0.02 0.02 0.04 0.04 0.05 0.04 0.05 0.05 0.04 0.03 0.03 0.03 0.03 0.02 0.01 0.01 0.01 0.00 0.00 0.00 0.00 0.00 0.00 0.01 0.03 0.05 0.03 0.02 0.02
0.01 0.01 0.01 0.00 0.00 0.00 0.00 0.01 0.01 0.01 0.01 0.02 0.02 0.02 0.03 0.04 0.03 0.04 0.05 0.05 0.05 0.05 0.04 0.03 0.03 0.03 0.03 0.02 0.01 0.01 0.01 0.00 0.00 0.00 0.00 0.00 0.00 0.01 0.01 0.02 0.02 0.02 0.03
0.02 0.02 0.02 0.01 0.00 0.00 0.00 0.01 0.00 0.00 0.00 0.01 0.01 0.02 0.02 0.03 0.03 0.03 0.04 0.05 0.06 0.05 0.04 0.03 0.03 0.02 0.02 0.03 0.02 0.02 0.01 0.00 0.00 0.00 0.00 0.01 0.01 0.01 0.01 0.01 0.01 0.02 0.02
0.01 0.02 0.02 0.01 0.00 0.00 0.00 0.00 0.00 0.00 0.00 0.01 0.01 0.00 0.01 0.01 0.03 0.04 0.03 0.03 0.04 0.05 0.05 0.04 0.03 0.02 0.01 0.02 0.02 0.03 0.01 0.00 0.00 0.00 0.00 0.00 0.00 0.01 0.01 0.02 0.02 0.03 0.02
0.01 0.01 0.01 0.00 0.00 0.01 0.01 0.01 0.01 0.01 0.01 0.01 0.01 0.00 0.00 0.01 0.01 0.03 0.03 0.03 0.02 0.03 0.04 0.04 0.03 0.01 0.01 0.01 0.03 0.04 0.03 0.01 0.00 0.00 0.00 0.00 0.00 0.00 0.01 0.01 0.02 0.03 0.04
0.02 0.02 0.01 0.01 0.01 0.01 0.02 0.03 0.02 0.01 0.01 0.01 0.01 0.01 0.01 0.01 0.01 0.02 0.02 0.03 0.02 0.02 0.04 0.04 0.03 0.02 0.01 0.01 0.02 0.02 0.03 0.02 0.01 0.00 0.01 0.01 0.01 0.01 0.01 0.01 0.01 0.02 0.03
0.02 0.02 0.02 0.02 0.02 0.02 0.02 0.02 0.02 0.02 0.02 0.02 0.02 0.02 0.02 0.02 0.02 0.02 0.02 0.03 0.03 0.03 0.03 0.03 0.02 0.02 0.03 0.02 0.02 0.02 0.02 0.03 0.01 0.01 0.01 0.01 0.01 0.02 0.02 0.01 0.01 0.01 0.02
0.03 0.01 0.01 0.01 0.01 0.01 0.01 0.02 0.02 0.02 0.02 0.03 0.02 0.02 0.02 0.03 0.02 0.03 0.03 0.03 0.04 0.04 0.03 0.03 0.02 0.03 0.03 0.03 0.02 0.02 0.02 0.02 0.02 0.02 0.02 0.01 0.02 0.03 0.03 0.02 0.02 0.02 0.02
0.02 0.02 0.02 0.01 0.01 0.01 0.02 0.03 0.03 0.03 0.02 0.02 0.02 0.01 0.02 0.02 0.02 0.02 0.03 0.03 0.03 0.04 0.04 0.04 0.03 0.03 0.03 0.04 0.04 0.03 0.03 0.03 0.03 0.03 0.03 0.03 0.03 0.04 0.06 0.06 0.05 0.03 0.03
0.01 0.02 0.02 0.02 0.01 0.01 0.02 0.03 0.03 0.03 0.03 0.02 0.02 0.02 0.02 0.02 0.02 0.02 0.02 0.03 0.04 0.03 0.03 0.02 0.02 0.02 0.03 0.05 0.05 0.04 0.03 0.02 0.02 0.02 0.02 0.02 0.03 0.04 0.06 0.08 0.10 0.08 0.06
0.02 0.02 0.02 0.01 0.02 0.01 0.03 0.03 0.03 0.03 0.02 0.02 0.01 0.02 0.02 0.01 0.02 0.02 0.03 0.04 0.05 0.04 0.02 0.02 0.02 0.02 0.02 0.04 0.05 0.04 0.04 0.02 0.01 0.01 0.02 0.03 0.03 0.03 0.04 0.06 0.08 0.10 0.10
0.02 0.02 0.01 0.01 0.01 0.01 0.03 0.03 0.03 0.03 0.02 0.01 0.01 0.01 0.01 0.01 0.01 0.02 0.03 0.04 0.05 0.05 0.04 0.03 0.02 0.02 0.03 0.03 0.04 0.04 0.03 0.03 0.02 0.02 0.01 0.02 0.03 0.03 0.02 0.03 0.05 0.06 0.08
0.02 0.01 0.01 0.01 0.01 0.01 0.02 0.03 0.03 0.02 0.01 0.01 0.01 0.01 0.01 0.01 0.01 0.02 0.03 0.04 0.04 0.05 0.05 0.05 0.03 0.03 0.03 0.03 0.03 0.03 0.03 0.03 0.02 0.02 0.01 0.01 0.02 0.04 0.04 0.03 0.03 0.04 0.05
MSLP
1013.93 1013.55 1013.11 1012.66 1012.24 1011.89 1011.63 1011.44 1011.31 1011.23 1011.16 1011.11 1011.07 1011.07 1011.14 1011.28 1011.51 1011.81 1012.16 1012.52 1012.86 1013.14 1013.35 1013.51 1013.62 1013.73 1013.86 1014.04 1014.27 1014.53 1014.82 1015.10 1015.36 1015.57 1015.75 1015.88 1016.01 1016.12 1016.25 1016.38 1016.51 1016.64 1016.74
1014.70 1014.29 1013.81 1013.30 1012.81 1012.39 1012.04 1011.77 1011.58 1011.45 1011.35 1011.28 1011.25 1011.26 1011.34 1011.49 1011.72 1012.02 1012.36 1012.72 1013.05 1013.34 1013.58 1013.76 1013.91 1014.06 1014.23 1014.43 1014.67 1014.93 1015.21 1015.47 1015.70 1015.90 1016.05 1016.18 1016.29 1016.41 1016.52 1016.64 1016.76 1016.87 1016.95
1015.33 1014.94 1014.45 1013.92 1013.40 1012.93 1012.52 1012.20 1011.95 1011.77 1011.63 1011.54 1011.49 1011.49 1011.56 1011.70 1011.91 1012.19 1012.51 1012.85 1013.17 1013.47 1013.72 1013.95 1014.15 1014.35 1014.56 1014.80 1015.05 1015.32 1015.59 1015.84 1016.05 1016.22 1016.36 1016.48 1016.59 1016.70 1016.81 1016.92 1017.03 1017.11 1017.18
1015.80 1015.43 1014.98 1014.47 1013.96 1013.48 1013.06 1012.70 1012.41 1012.18 1012.00 1011.87 1011.78 1011.75 1011.79 1011.90 1012.08 1012.32 1012.60 1012.91 1013.22 1013.51 1013.79 1014.05 1014.30 1014.56 1014.82 1015.11 1015.40 1015.68 1015.95 1016.19 1016.39 1016.55 1016.69 1016.80 1016.91 1017.02 1017.13 1017.23 1017.32 1017.39 1017.43
1016.06 1015.76 1015.36 1014.92 1014.46 1014.01 1013.60 1013.23 1012.91 1012.65 1012.42 1012.24 1012.11 1012.05 1012.04 1012.10 1012.23 1012.42 1012.66 1012.92 1013.20 1013.48 1013.77 1014.07 1014.37 1014.68 1015.01 1015.34 1015.67 1015.98 1016.27 1016.51 1016.71 1016.87 1017.00 1017.12 1017.23 1017.35 1017.46 1017.56 1017.64 1017.70 1017.72
1016.14 1015.90 1015.59 1015.24 1014.87 1014.48 1014.11 1013.76 1013.44 1013.14 1012.88 1012.65 1012.48 1012.36 1012.30 1012.31 1012.39 1012.52 1012.70 1012.91 1013.15 1013.42 1013.71 1014.03 1014.37 1014.73 1015.11 1015.49 1015.86 1016.20 1016.50 1016.76 1016.97 1017.14 1017.28 1017.41 1017.54 1017.66 1017.78 1017.88 1017.96 1018.01 1018.01
1016.05 1015.88 1015.67 1015.43 1015.16 1014.87 1014.57 1014.25 1013.93 1013.63 1013.33 1013.07 1012.86 1012.69 1012.59 1012.55 1012.57 1012.64 1012.76 1012.92 1013.12 1013.36 1013.63 1013.95 1014.31 1014.71 1015.13 1015.55 1015.95 1016.32 1016.65 1016.92 1017.14 1017.33 1017.48 1017.63 1017.77 1017.91 1018.04 1018.15 1018.23 1018.27 1018.27
1015.83 1015.73 1015.62 1015.49 1015.34 1015.15 1014.92 1014.66 1014.37 1014.06 1013.76 1013.48 1013.24 1013.04 1012.90 1012.82 1012.79 1012.82 1012.88 1012.98 1013.13 1013.32 1013.57 1013.88 1014.24 1014.64 1015.08 1015.53 1015.95 1016.35 1016.69 1016.98 1017.21 1017.41 1017.58 1017.75 1017.91 1018.07 1018.21 1018.34 1018.42 1018.46 1018.46
1015.53 1015.49 1015.46 1015.44 1015.39 1015.30 1015.16 1014.96 1014.71 1014.42 1014.13 1013.84 1013.59 1013.39 1013.23 1013.12 1013.06 1013.04 1013.05 1013.10 1013.19 1013.33 1013.54 1013.81 1014.15 1014.55 1014.99 1015.44 1015.88 1016.28 1016.63 1016.93 1017.17 1017.38 1017.57 1017.75 1017.93 1018.11 1018.27 1018.41 1018.51 1018.56 1018.57
1015.19 1015.19 1015.23 1015.29 1015.33 1015.32 1015.25 1015.11 1014.91 1014.66 1014.39 1014.13 1013.89 1013.69 1013.54 1013.42 1013.34 1013.29 1013.25 1013.25 1013.28 1013.37 1013.53 1013.76 1014.07 1014.45 1014.88 1015.32 1015.75 1016.15 1016.51 1016.80 1017.05 1017.27 1017.47 1017.66 1017.86 1018.05 1018.24 1018.39 1018.51 1018.58 1018.60
1014.83 1014.86 1014.94 1015.05 1015.15 1015.21 1015.20 1015.11 1014.96 1014.76 1014.53 1014.30 1014.10 1013.92 1013.79 1013.68 1013.59 1013.51 1013.44 1013.39 1013.37 1013.40 1013.51 1013.70 1013.98 1014.33 1014.74 1015.17 1015.59 1015.99 1016.34 1016.63 1016.88 1017.10 1017.31 1017.52 1017.73 1017.94 1018.14 1018.32 1018.46 1018.55 1018.59
1014.47 1014.50 1014.60 1014.74 1014.87 1014.96 1014.99 1014.95 1014.84 1014.68 1014.50 1014.33 1014.17 1014.04 1013.93 1013.83 1013.74 1013.65 1013.55 1013.45 1013.39 1013.38 1013.44 1013.59 1013.84 1014.18 1014.57 1014.99 1015.42 1015.81 1016.15 1016.45 1016.70 1016.93 1017.14 1017.36 1017.58 1017.82 1018.04 1018.24 1018.40 1018.52 1018.58
1014.08 1014.11 1014.20 1014.34 1014.48 1014.58 1014.63 1014.62 1014.55 1014.44 1014.31 1014.19 1014.08 1014.00 1013.92 1013.85 1013.76 1013.65 1013.52 1013.40 1013.29 1013.24 1013.27 1013.40 1013.64 1013.96 1014.36 1014.79 1015.22 1015.62 1015.98 1016.28 1016.54 1016.77 1017.00 1017.23 1017.47 1017.72 1017.97 1018.19 1018.38 1018.51 1018.60
1013.65 1013.66 1013.74 1013.85 1013.97 1014.07 1014.12 1014.13 1014.09 1014.03 1013.96 1013.90 1013.85 1013.81 1013.77 1013.71 1013.62 1013.50 1013.34 1013.18 1013.05 1012.97 1012.98 1013.10 1013.33 1013.67 1014.08 1014.54 1014.99 1015.42 1015.80 1016.12 1016.40 1016.65 1016.90 1017.14 1017.40 1017.67 1017.94 1018.19 1018.40 1018.56 1018.66
1013.14 1013.14 1013.18 1013.27 1013.36 1013.44 1013.49 1013.51 1013.50 1013.48 1013.47 1013.46 1013.47 1013.47 1013.46 1013.42 1013.33 1013.18 1013.00 1012.81 1012.64 1012.55 1012.54 1012.66 1012.91 1013.28 1013.73 1014.22 1014.72 1015.19 1015.61 1015.97 1016.28 1016.55 1016.82 1017.09 1017.37 1017.66 1017.95 1018.22 1018.45 1018.63 1018.75
1012.54 1012.51 1012.53 1012.58 1012.65 1012.70 1012.75 1012.78 1012.81 1012.84 1012.88 1012.93 1012.99 1013.03 1013.04 1013.01 1012.90 1012.74 1012.52 1012.30 1012.11 1011.99 1011.98 1012.11 1012.38 1012.78 1013.27 1013.82 1014.38 1014.90 1015.37 1015.78 1016.13 1016.45 1016.74 1017.03 1017.33 1017.64 1017.95 1018.24 1018.49 1018.69 1018.83
1011.81 1011.77 1011.78 1011.80 1011.84 1011.89 1011.94 1011.99 1012.04 1012.12 1012.22 1012.32 1012.43 1012.51 1012.55 1012.51 1012.40 1012.20 1011.96 1011.70 1011.48 1011.34 1011.32 1011.46 1011.75 1012.19 1012.73 1013.34 1013.95 1014.54 1015.07 1015.53 1015.93 1016.28 1016.61 1016.93 1017.25 1017.58 1017.90 1018.20 1018.47 1018.69 1018.85
1010.99 1010.95 1010.93 1010.95 1010.98 1011.02 1011.07 1011.14 1011.24 1011.36 1011.51 1011.67 1011.83 1011.94 1012.00 1011.97 1011.85 1011.63 1011.36 1011.06 1010.81 1010.65 1010.62 1010.76 1011.07 1011.54 1012.12 1012.78 1013.45 1014.09 1014.68 1015.21 1015.65 1016.04 1016.40 1016.74 1017.08 1017.42 1017.75 1018.07 1018.35 1018.58 1018.75
1010.08 1010.04 1010.03 1010.04 1010.07 1010.11 1010.18 1010.27 1010.40 1010.57 1010.76 1010.98 1011.18 1011.33 1011.42 1011.40 1011.27 1011.04 1010.75 1010.43 1010.15 1009.96 1009.92 1010.05 1010.37 1010.85 1011.47 1012.16 1012.88 1013.58 1014.22 1014.79 1015.28 1015.71 1016.10 1016.46 1016.81 1017.15 1017.49 1017.81 1018.10 1018.34 1018.53
1009.14 1009.11 1009.10 1009.11 1009.13 1009.18 1009.25 1009.36 1009.52 1009.72 1009.96 1010.22 1010.46 1010.66 1010.78 1010.78 1010.67 1010.44 1010.14 1009.81 1009.51 1009.31 1009.25 1009.37 1009.68 1010.17 1010.80 1011.51 1012.26 1013.00 1013.69 1014.30 1014.83 1015.29 1015.70 1016.08 1016.43 1016.78 1017.12 1017.44 1017.73 1017.98 1018.18
1008.19 1008.16 1008.15 1008.16 1008.18 1008.22 1008.29 1008.40 1008.57 1008.80 1009.07 1009.36 1009.65 1009.89 1010.05 1010.09 1010.01 1009.80 1009.52 1009.19 1008.90 1008.69 1008.62 1008.73 1009.03 1009.51 1010.13 1010.86 1011.63 1012.39 1013.11 1013.75 1014.32 1014.81 1015.24 1015.63 1015.99 1016.33 1016.67 1016.98 1017.28 1017.53 1017.75
1007.25 1007.22 1007.20 1007.19 1007.20 1007.22 1007.27 1007.37 1007.53 1007.76 1008.05 1008.37 1008.70 1008.98 1009.19 1009.29 1009.26 1009.11 1008.86 1008.57 1008.29 1008.09 1008.02 1008.12 1008.41 1008.87 1009.49 1010.21 1010.99 1011.76 1012.50 1013.17 1013.77 1014.28 1014.73 1015.13 1015.50 1015.84 1016.17 1016.49 1016.78 1017.04 1017.26
1006.32 1006.28 1006.24 1006.20 1006.16 1006.14 1006.16 1006.22 1006.36 1006.58 1006.88 1007.22 1007.58 1007.92 1008.19 1008.35 1008.40 1008.32 1008.14 1007.90 1007.67 1007.50 1007.44 1007.55 1007.82 1008.27 1008.87 1009.58 1010.35 1011.13 1011.89 1012.58 1013.20 1013.74 1014.21 1014.62 1015.00 1015.35 1015.67 1015.99 1016.27 1016.54 1016.76
1005.38 1005.30 1005.21 1005.12 1005.03 1004.96 1004.92 1004.95 1005.05 1005.26 1005.55 1005.91 1006.31 1006.70 1007.03 1007.28 1007.41 1007.43 1007.34 1007.18 1007.02 1006.90 1006.87 1006.99 1007.26 1007.70 1008.28 1008.98 1009.74 1010.52 1011.28 1011.99 1012.63 1013.19 1013.69 1014.12 1014.51 1014.86 1015.19 1015.50 1015.79 1016.05 1016.28
1004.37 1004.22 1004.07 1003.92 1003.76 1003.63 1003.54 1003.52 1003.60 1003.79 1004.09 1004.47 1004.91 1005.35 1005.77 1006.10 1006.34 1006.45 1006.47 1006.41 1006.33 1006.27 1006.29 1006.43 1006.72 1007.15 1007.73 1008.41 1009.16 1009.93 1010.70 1011.42 1012.08 1012.67 1013.19 1013.64 1014.05 1014.41 1014.74 1015.05 1015.33 1015.59 1015.82
1003.21 1002.99 1002.76 1002.54 1002.32 1002.13 1002.00 1001.96 1002.03 1002.22 1002.54 1002.96 1003.44 1003.95 1004.45 1004.87 1005.21 1005.43 1005.55 1005.60 1005.61 1005.63 1005.71 1005.89 1006.20 1006.64 1007.21 1007.88 1008.62 1009.39 1010.16 1010.90 1011.57 1012.18 1012.72 1013.20 1013.62 1013.99 1014.33 1014.63 1014.91 1015.16 1015.39
Thickness
5731 5731 5729 5728 5728 5727 5727 5727 5726 5726 5726 5726 5727 5727 5726 5725 5723 5722 5721 5721 5721 5722 5722 5721 5721 5721 5721 5720 5720 5720 5720 5720 5720 5720 5720 5720 5720 5720 5720 5719 5719 5719 5719
5728 5727 5725 5724 5723 5723 5723 5723 5722 5721 5721 5721 5720 5721 5721 5720 5719 5718 5717 5716 5716 5717 5717 5717 5717 5716 5716 5716 5716 5716 5715 5715 5715 5715 5715 5715 5715 5715 5716 5715 5715 5715 5715
5724 5723 5721 5719 5719 5719 5719 5718 5717 5717 5716 5715 5715 5715 5716 5716 5715 5714 5712 5712 5711 5711 5712 5712 5712 5711 5711 5711 5711 5711 5710 5710 5710 5710 5710 5711 5711 5711 5711 5711 5711 5711 5711
5720 5719 5716 5715 5715 5714 5714 5713 5711 5710 5709 5709 5709 5710 5710 5710 5710 5710 5709 5708 5707 5706 5706 5706 5706 5706 5705 5706 5706 5705 5705 5705 5705 5706 5706 5705 5706 5706 5706 5707 5706 5706 5706
5716 5714 5712 5711 5710 5709 5709 5708 5706 5704 5703 5703 5703 5704 5704 5704 5704 5705 5704 5704 5703 5701 5701 5700 5700 5700 5700 5700 5700 5700 5700 5700 5700 5700 5700 5700 5701 5701 5702 5702 5702 5701 5701
5711 5710 5708 5707 5706 5704 5703 5702 5700 5700 5699 5699 5700 5699 5698 5699 5699 5699 5699 5699 5698 5697 5696 5696 5695 5694 5694 5694 5694 5694 5694 5694 5695 5695 5695 5695 5696 5696 5696 5696 5697 5696 5696
5707 5706 5704 5703 5701 5699 5698 5697 5696 5695 5694 5695 5693 5691 5692 5694 5694 5694 5694 5694 5693 5693 5693 5692 5691 5690 5689 5688 5688 5688 5689 5689 5689 5689 5689 5689 5690 5690 5691 5691 5691 5691 5691
5703 5702 5700 5698 5697 5695 5693 5692 5691 5688 5688 5690 5687 5683 5680 5681 5685 5689 5689 5688 5688 5689 5688 5688 5687 5686 5683 5682 5682 5682 5683 5683 5683 5684 5684 5684 5684 5685 5685 5686 5686 5686 5686
5698 5697 5696 5694 5692 5690 5688 5687 5686 5684 5681 5683 5684 5681 5675 5671 5675 5680 5682 5683 5684 5683 5683 5683 5683 5681 5679 5678 5677 5677 5677 5677 5678 5678 5679 5679 5679 5679 5680 5680 5680 5680 5680
5693 5692 5690 5689 5688 5686 5683 5683 5682 5681 5678 5676 5678 5680 5679 5676 5670 5668 5673 5677 5679 5678 5678 5678 5678 5676 5675 5673 5672 5672 5672 5672 5673 5673 5673 5673 5673 5673 5674 5674 5674 5674 5674
5688 5687 5685 5684 5682 5681 5679 5678 5678 5677 5676 5673 5672 5672 5672 5673 5672 5666 5663 5667 5670 5672 5673 5673 5673 5672 5671 5669 5668 5667 5667 5667 5667 5668 5668 5668 5668 5667 5668 5668 5668 5668 5668
5682 5681 5680 5679 5677 5676 5675 5674 5674 5673 5672 5671 5670 5669 5667 5665 5664 5664 5661 5661 5662 5665 5668 5669 5668 5668 5666 5665 5664 5663 5662 5662 5662 5662 5662 5662 5662 5662 5662 5662 5662 5662 5662
5675 5675 5675 5674 5672 5672 5671 5670 5669 5668 5668 5667 5666 5665 5664 5663 5663 5662 5659 5658 5658 5660 5662 5663 5664 5664 5663 5661 5660 5659 5658 5657 5657 5657 5657 5657 5657 5657 5656 5656 5657 5656 5656
5672 5672 5671 5670 5669 5668 5667 5666 5665 5664 5664 5663 5663 5661 5660 5660 5660 5659 5656 5654 5652 5653 5654 5656 5659 5659 5659 5658 5656 5655 5653 5653 5652 5652 5652 5652 5652 5651 5651 5651 5651 5651 5651
5670 5668 5667 5666 5665 5664 5663 5662 5660 5660 5659 5659 5658 5657 5656 5656 5656 5656 5655 5654 5649 5645 5646 5650 5652 5654 5654 5653 5652 5651 5649 5648 5648 5647 5647 5646 5646 5646 5646 5646 5645 5645 5645
5666 5664 5662 5661 5660 5660 5659 5657 5655 5655 5654 5653 5653 5652 5651 5651 5651 5651 5651 5651 5650 5647 5644 5646 5648 5650 5650 5649 5647 5646 5646 5645 5643 5643 5642 5641 5641 5641 5641 5640 5640 5640 5639
5661 5659 5658 5656 5655 5655 5654 5652 5650 5650 5649 5648 5648 5647 5646 5647 5645 5645 5645 5645 5645 5644 5641 5642 5644 5645 5644 5644 5643 5642 5641 5640 5639 5638 5637 5637 5636 5636 5635 5635 5635 5634 5634
5657 5655 5653 5652 5651 5650 5649 5647 5645 5644 5643 5642 5642 5641 5641 5641 5640 5640 5640 5639 5639 5640 5638 5636 5636 5637 5638 5639 5638 5637 5636 5636 5635 5634 5633 5632 5631 5630 5630 5629 5629 5629 5628
5651 5650 5648 5646 5645 5645 5644 5642 5640 5639 5638 5637 5637 5636 5636 5635 5634 5634 5634 5633 5634 5635 5634 5631 5630 5631 5632 5633 5632 5632 5631 5630 5630 5629 5628 5627 5626 5625 5625 5624 5623 5623 5623
5644 5643 5642 5641 5640 5640 5639 5637 5635 5634 5633 5632 5632 5631 5631 5630 5629 5628 5628 5627 5627 5627 5627 5625 5624 5624 5624 5626 5625 5624 5623 5623 5623 5623 5622 5621 5621 5620 5619 5619 5618 5617 5617
5638 5637 5636 5635 5634 5633 5633 5631 5629 5628 5627 5626 5625 5625 5625 5625 5625 5624 5623 5621 5620 5619 5618 5618 5617 5616 5616 5616 5617 5618 5616 5616 5617 5617 5616 5616 5615 5614 5613 5613 5612 5611 5611
5631 5630 5629 5628 5627 5627 5626 5625 5623 5622 5620 5619 5618 5618 5618 5618 5618 5618 5617 5617 5616 5613 5611 5610 5610 5609 5610 5610 5611 5612 5610 5609 5607 5610 5609 5609 5609 5607 5607 5607 5607 5606 5605
5624 5622 5622 5620 5619 5619 5618 5617 5616 5614 5613 5612 5611 5611 5612 5612 5611 5610 5609 5609 5609 5608 5607 5606 5604 5604 5605 5606 5605 5604 5604 5602 5602 5603 5602 5601 5602 5600 5601 5601 5601 5601 5600
5616 5615 5614 5613 5611 5611 5611 5610 5608 5606 5605 5605 5604 5604 5603 5603 5603 5602 5602 5601 5601 5601 5600 5600 5600 5600 5601 5601 5600 5599 5598 5597 5597 5596 5596 5592 5594 5594 5595 5595 5594 5594 5593
5608 5607 5607 5605 5604 5603 5603 5602 5600 5598 5597 5596 5596 5596 5596 5595 5596 5595 5594 5593 5593 5593 5593 5593 5593 5593 5593 5594 5594 5591 5589 5588 5587 5587 5588 5586 5586 5586 5587 5588 5587 5587 5586
5601 5600 5599 5598 5597 5596 5595 5594 5592 5590 5588 5587 5588 5588 5588 5587 5587 5587 5586 5584 5583 5585 5585 5585 5585 5585 5585 5586 5586 5585 5583 5580 5579 5578 5580 5579 5578 5577 5577 5579 5579 5578 5577